Regional Weather Roundup
Issued by NWS Memphis, TN

Home | Current Version | Previous Version | Text Only | Print | Product List | Glossary On
Versions: 1 2 3 4 5 6 7 8 9 10 11 12 13 14 15 16 17 18 19 20 21 22 23 24 25 26 27 28 29 30 31 32 33 34 35 36 37 38 39 40 41 42 43 44 45 46 47 48 49 50
000
ASUS44 KMEG 230610
RWRMEG
MEMPHIS CWA HOURLY WEATHER ROUNDUP
NATIONAL WEATHER SERVICE MEMPHIS TN
1200 AM CST TUE JAN 23 2018

...WEST TENNESSEE...

CITY           SKY/WX    TMP DP  RH WIND       PRES   REMARKS
MEMPHIS INTL   MOCLDY    47  30  51 SW13      29.88S
6HR MIN TEMP:  47; 6HR MAX TEMP:  54;

NWS MEMPHIS      N/A     47 N/A N/A MISG        N/A
JACKSON        FAIR      46  30  53 W21G26    29.84S
6HR MIN TEMP:  46; 6HR MAX TEMP:  55;

COVINGTON      CLOUDY    46  30  53 W17       29.85S
SOMERVILLE     CLOUDY    48  30  49 SW14G24   29.85S
BOLIVAR        CLOUDY    46  30  53 SW8G18    29.85S
LEXINGTON      CLOUDY    48  32  53 SW10      29.82S
SELMER         PTCLDY    46  30  53 W10G25    29.85R
SAVANNAH       PTCLDY    48  32  53 SW15      29.86S
DYERSBURG      CLOUDY    46  31  55 SW17      29.82S
6HR MIN TEMP:  46; 6HR MAX TEMP:  52;

UNION CITY     CLOUDY    46  32  57 SW14G22   29.79R
PARIS          CLOUDY    46  30  53 SW20      29.77S
HUNTINGDON     CLOUDY    46  30  53 SW15G22   29.79S


...EASTERN ARKANSAS...

CITY           SKY/WX    TMP DP  RH WIND       PRES   REMARKS
JONESBORO      CLOUDY    46  32  58 W13       29.83R
6HR MIN TEMP:  46; 6HR MAX TEMP:  49;

WEST MEMPHIS   CLOUDY    47  32  56 VRB7      29.87S
6HR MIN TEMP:  47; 6HR MAX TEMP:  53;

BATESVILLE     CLOUDY    46  26  45 W12G22    29.86R
6HR MIN TEMP:  46; 6HR MAX TEMP:  48;

NEWPORT        MOCLDY    46  28  49 W17G28    29.86R
6HR MIN TEMP:  46; 6HR MAX TEMP:  48;

WALNUT RIDGE   CLOUDY    45  27  49 W24G32    29.82R
6HR MIN TEMP:  45; 6HR MAX TEMP:  49;

BLYTHEVILLE    CLOUDY    46  36  68 SW10      29.83R
6HR MIN TEMP:  46; 6HR MAX TEMP:  52;

SEARCY         CLOUDY    47  29  49 W9G20     29.89R
6HR MIN TEMP:  47; 6HR MAX TEMP:  50;

STUTTGART      FAIR      44  31  60 SW14      29.93R
6HR MIN TEMP:  44; 6HR MAX TEMP:  51;

PINE BLUFF     FAIR      44  29  55 SW10      29.96S
6HR MIN TEMP:  44; 6HR MAX TEMP:  51;

MONTICELLO     FAIR      47  28  47 W10       29.98S
6HR MIN TEMP:  46; 6HR MAX TEMP:  54;



...NORTH MISSISSIPPI...

CITY           SKY/WX    TMP DP  RH WIND       PRES   REMARKS
TUPELO         FAIR      47  28  47 S7        29.92S
6HR MIN TEMP:  47; 6HR MAX TEMP:  59;

BATESVILLE     FAIR      46  28  49 W13G23    29.94R
6HR MIN TEMP:  46; 6HR MAX TEMP:  55;

TUNICA           N/A     43  32  65 SW10      29.93S
CLARKSDALE     MOCLDY    46  32  57 SW12      29.94S
CORINTH        FAIR      48  30  49 W9        29.88R
GREENWOOD      FAIR      46  32  58 SW6       29.98S
6HR MIN TEMP:  46; 6HR MAX TEMP:  58;

COLUMBUS       FAIR      47  33  58 SW8       29.96R
6HR MIN TEMP:  47; 6HR MAX TEMP:  59;

STARKVILLE     FAIR      46  30  53 SW5       29.99R
GOLDEN TRIANGL FAIR      48  30  49 SW10      29.98R
6HR MIN TEMP:  48; 6HR MAX TEMP:  59;



...SOUTHEAST MISSOURI...

CITY           SKY/WX    TMP DP  RH WIND       PRES   REMARKS
KENNETT        CLOUDY    46  30  53 W18G26    29.80R
MALDEN         MOCLDY    45  30  57 W22G29    29.80R
WEST PLAINS    CLOUDY    36  28  73 W16G28    29.79R WCI  26
6HR MIN TEMP:  36; 6HR MAX TEMP:  43; 6HR PCP: TRACE;

POPLAR BLUFF   CLOUDY    43  26  51 W12G24    29.77R
6HR MIN TEMP:  43; 6HR MAX TEMP:  50; 6HR PCP: TRACE;

CAPE GIRARDEAU CLOUDY    42  28  57 W21       29.74R
6HR MIN TEMP:  41; 6HR MAX TEMP:  50; 6HR PCP: TRACE;



...NORTHWEST ALABAMA...

CITY           SKY/WX    TMP DP  RH WIND       PRES   REMARKS
MUSCLE SHOALS  FAIR      46  31  55 W9        29.89S
6HR MIN TEMP:  46; 6HR MAX TEMP:  61;



...MIDDLE TENNESSEE...

CITY           SKY/WX    TMP DP  RH WIND       PRES   REMARKS
NASHVILLE      FAIR      51  28  41 W14G24    29.79R
6HR MIN TEMP:  51; 6HR MAX TEMP:  63;

CLARKSVILLE    CLOUDY    48  28  46 SW14G25   29.76S
6HR MIN TEMP:  47; 6HR MAX TEMP:  60;

COLUMBIA       CLEAR     48  28  46 SW14G21   29.81S


...WESTERN KENTUCKY...

CITY           SKY/WX    TMP DP  RH WIND       PRES   REMARKS
PADUCAH        CLOUDY    45  29  53 W23G40    29.73R
6HR MIN TEMP:  45; 6HR MAX TEMP:  52;

FORT CAMPBELL  CLOUDY    47  29  50 SW25G32   29.74F
6HR MIN TEMP:  46; 6HR MAX TEMP:  58;



...CENTRAL ARKANSAS...

CITY           SKY/WX    TMP DP  RH WIND       PRES   REMARKS
LITTLE ROCK    CLEAR     43  28  55 W10       29.93R
6HR MIN TEMP:  43; 6HR MAX TEMP:  50;



SKY/WX REPORTED AS FAIR MEANS FEW OR NO CLOUDS BELOW
12 THOUSAND FEET.





USA.gov is the U.S. government's official web portal to all federal, state and local government web resources and services.